2023/03/05 00:00:00,58.3, 0.3
2023/03/05 00:10:00,58.3, 0.0
2023/03/05 00:20:00,58.2,-0.2
2023/03/05 00:30:00,58.2,-0.1
2023/03/05 00:40:00,58.2,-0.5
2023/03/05 00:50:00,58.1,-0.7
2023/03/05 01:00:00,58.2,-0.6
2023/03/05 01:10:00,58.2,-0.9
2023/03/05 01:20:00,58.2,-1.0
2023/03/05 01:30:00,58.2,-1.1
2023/03/05 01:40:00,58.3,-1.4
2023/03/05 01:50:00,58.2,-1.5
2023/03/05 02:00:00,58.2,-1.1
2023/03/05 02:10:00,58.2,-1.4
2023/03/05 02:20:00,58.2,-1.1
2023/03/05 02:30:00,58.2,-1.0
2023/03/05 02:40:00,58.2,-1.4
2023/03/05 02:50:00,58.2,-1.7
2023/03/05 03:00:00,58.2,-1.8
2023/03/05 03:10:00,58.2,-1.7
2023/03/05 03:20:00,58.2,-1.6
2023/03/05 03:30:00,58.1,-1.5
2023/03/05 03:40:00,58.1,-1.8
2023/03/05 03:50:00,58.2,-1.8
2023/03/05 04:00:00,58.2,-2.0
2023/03/05 04:10:00,58.2,-1.4
2023/03/05 04:20:00,58.2,-2.0
2023/03/05 04:30:00,58.2,-2.1
2023/03/05 04:40:00,58.2,-2.3
2023/03/05 04:50:00,58.2,-1.2
2023/03/05 05:00:00,58.2,-2.0
2023/03/05 05:10:00,58.2,-2.0
2023/03/05 05:20:00,58.3,-2.0
2023/03/05 05:30:00,58.3,-2.1
2023/03/05 05:40:00,58.3,-2.0
2023/03/05 05:50:00,58.3,-2.2
2023/03/05 06:00:00,58.2,-2.2
2023/03/05 06:10:00,58.2,-2.3
2023/03/05 06:20:00,58.2,-2.2
2023/03/05 06:30:00,58.3,-2.3
2023/03/05 06:40:00,58.2,-2.2
2023/03/05 06:50:00,58.3,-2.5
2023/03/05 07:00:00,58.2,-2.1
2023/03/05 07:10:00,58.2,-1.8
2023/03/05 07:20:00,58.2,-1.5
2023/03/05 07:30:00,58.2,-1.6
2023/03/05 07:40:00,58.2,-1.2
2023/03/05 07:50:00,58.0,-0.9
2023/03/05 08:00:00,57.9,-0.1
2023/03/05 08:10:00,58.1, 0.8
2023/03/05 08:20:00,57.8, 1.4
2023/03/05 08:30:00,57.7, 2.5
2023/03/05 08:40:00,57.9, 3.1
2023/03/05 08:50:00,57.9, 3.8
2023/03/05 09:00:00,57.7, 4.5
2023/03/05 09:10:00,57.8, 5.7
2023/03/05 09:20:00,57.6, 7.2
2023/03/05 09:30:00,57.6, 7.7
2023/03/05 09:40:00,57.7, 7.7
2023/03/05 09:50:00,58.0, 8.0
2023/03/05 10:00:00,57.8, 8.4
2023/03/05 10:10:00,57.4, 8.4
2023/03/05 10:20:00,57.1, 8.1
2023/03/05 10:30:00,57.0, 7.6
2023/03/05 10:40:00,57.1, 8.2
2023/03/05 10:50:00,56.8,10.8
2023/03/05 11:00:00,15.5,10.2
2023/03/05 11:10:00, 0.0,10.6
2023/03/05 11:20:00, 0.0,10.6
2023/03/05 11:30:00, 0.0,11.1
2023/03/05 11:40:00, 0.0,12.0
2023/03/05 11:50:00, 0.0,12.9
2023/03/05 12:00:00,---,13.2
2023/03/05 12:10:00, 0.0,12.8
2023/03/05 12:20:00, 0.0,12.7
2023/03/05 12:30:00, 0.0,13.1
2023/03/05 12:40:00, 0.0,13.4
2023/03/05 12:50:00, 0.0,14.4
2023/03/05 13:00:00, 0.0,14.8
2023/03/05 13:10:00,---,14.4
2023/03/05 13:20:00,13.7,15.5
2023/03/05 13:30:00, 5.5,14.1
2023/03/05 13:40:00,---,14.1
2023/03/05 13:50:00,21.6,15.7
2023/03/05 14:00:00,21.3,15.2
2023/03/05 14:10:00,---,12.8
2023/03/05 14:20:00,13.0,14.2
2023/03/05 14:30:00,---,13.4
2023/03/05 14:40:00,53.6,13.0
2023/03/05 14:50:00,53.5,13.0
2023/03/05 15:00:00,53.3,14.0
2023/03/05 15:10:00,53.2,16.5
2023/03/05 15:20:00,53.4,13.9
2023/03/05 15:30:00,53.4,13.1
2023/03/05 15:40:00,53.5,14.8
2023/03/05 15:50:00,53.8,17.7
2023/03/05 16:00:00,53.8,15.9
2023/03/05 16:10:00,53.2,14.2
2023/03/05 16:20:00,53.2,15.5
2023/03/05 16:30:00,53.3,13.8
2023/03/05 16:40:00,53.3,13.5
2023/03/05 16:50:00,53.3,11.0
2023/03/05 17:00:00,53.4,10.6
2023/03/05 17:10:00,53.8, 7.6
2023/03/05 17:20:00,54.0, 6.3
2023/03/05 17:30:00,53.9, 5.6
2023/03/05 17:40:00,54.2, 5.2
2023/03/05 17:50:00,54.5, 4.3
2023/03/05 18:00:00,54.5, 3.5
2023/03/05 18:10:00,54.2, 3.0
2023/03/05 18:20:00,54.0, 2.3
2023/03/05 18:30:00,53.9, 1.7
2023/03/05 18:40:00,53.8, 1.4
2023/03/05 18:50:00,53.7, 1.0
2023/03/05 19:00:00,53.7, 1.0
2023/03/05 19:10:00,53.7, 0.4
2023/03/05 19:20:00,53.7, 0.3
2023/03/05 19:30:00,53.7,-0.1
2023/03/05 19:40:00,53.7,-0.2
2023/03/05 19:50:00,53.7,-0.3
2023/03/05 20:00:00,53.7,-0.4
2023/03/05 20:10:00,53.6,-0.4
2023/03/05 20:20:00,53.6,-0.5
2023/03/05 20:30:00,53.7,-1.0
2023/03/05 20:40:00,53.6,-1.2
2023/03/05 20:50:00,53.6,-1.5
2023/03/05 21:00:00,53.6,-1.5
2023/03/05 21:10:00,53.6,-1.5
2023/03/05 21:20:00,53.6,-1.7
2023/03/05 21:30:00,53.7,-1.9
2023/03/05 21:40:00,53.7,-1.6
2023/03/05 21:50:00,53.6,-1.8
2023/03/05 22:00:00,53.6,-1.6
2023/03/05 22:10:00,53.7,-1.8
2023/03/05 22:20:00,53.7,-1.5
2023/03/05 22:30:00,53.7,-1.7
2023/03/05 22:40:00,53.7,-1.8
2023/03/05 22:50:00,53.6,-1.6
2023/03/05 23:00:00,53.6,-1.7
2023/03/05 23:10:00,53.6,-1.8
2023/03/05 23:20:00,53.6,-2.0
2023/03/05 23:30:00,53.6,-1.9
2023/03/05 23:40:00,53.6,-2.1
2023/03/05 23:50:00,53.7,-1.8
